Location: Gairloch Mountain Observatory
(46.1383°N, 60.9640°W)
Time: 02:24:33
(UTC-03:00)

Daily predictions for brighter satellites

Satellite Brightness Start Highest point End
(mag) Time Altitude Azimuth Time Altitude Azimuth Time Altitude Azimuth
Cosmos 2297 Rocket 4.4 02:23:18 21° NNE 02:23:18 21° NNE 02:25:07 10° NNE
SL-16 R/B 4.1 02:23:13 30° NNE 02:23:13 30° NNE 02:26:41 10° N
USA 215 4.4 02:31:47 10° NE 02:37:19 36° N 02:37:19 36° N
Resurs 1-4 Rocket 3.9 02:56:36 10° NNE 02:59:21 29° NE 02:59:21 29° NE
ADEOS Rocket 4.1 03:06:30 10° N 03:10:39 41° NNW 03:10:39 41° NNW
Cosmos 2227 Rocket 4.0 03:23:32 22° NNW 03:23:32 22° NNW 03:26:14 10° N
Cosmos 2263 Rocket 3.7 03:26:58 29° ESE 03:26:58 29° ESE 03:31:47 10° NE
ARIANE 5 R/B 3.7 03:31:08 10° NNE 03:34:16 38° NNE 03:34:16 38° NNE
CZ-4C R/B 3.5 03:37:48 33° NNW 03:37:48 33° NNW 03:42:36 10° NNE
Lacrosse 5 rocket 4.1 03:38:51 14° NNE 03:38:51 14° NNE 03:39:43 10° NE
ATLAS 5 CENTAUR R/B 4.5 03:38:30 10° NNW 03:42:52 22° NNE 03:47:34 10° ENE
CZ-2D R/B 3.1 03:38:49 10° NNE 03:42:03 39° N 03:42:03 39° N
Cosmos 2180 Rocket 4.4 03:56:14 84° E 03:56:14 84° E 04:02:23 10° N
Cosmos 2297 Rocket 4.0 04:05:07 18° NNW 04:05:07 18° NNW 04:08:15 10° N
SL-16 R/B 4.1 04:08:19 20° NW 04:08:19 20° NW 04:10:23 10° NNW
Gbstr 26 Del rocket 4.3 04:04:46 65° W 04:05:50 74° SW 04:13:58 10° SE
Okean O Rocket 4.2 04:09:11 10° NE 04:12:11 18° E 04:15:10 10° SE
Cosmos 2266 Rocket 4.1 04:07:19 10° N 04:13:47 77° E 04:18:45 18° SSE
USA 215 4.4 04:13:47 10° ENE 04:19:41 38° NNE 04:24:38 14° NW
ADEOS II 3.0 04:16:04 10° NNE 04:21:07 45° E 04:24:03 23° SSE
DELTA 2 R/B (1) 4.4 04:23:02 38° SSE 04:23:02 38° SSE 04:27:15 10° ESE
Cosmos 1607 3.9 04:23:15 60° SSW 04:24:29 83° SE 04:30:54 10° NE
Cosmos 332 Rocket 3.7 04:30:04 10° NNW 04:34:54 83° ENE 04:39:42 10° SSE
Cosmos 371 Rocket 3.4 04:33:45 10° NNW 04:38:39 77° ENE 04:43:30 10° SSE
Cosmos 1140 Rocket 3.9 04:39:19 45° NW 04:39:19 45° NW 04:44:08 10° N
Resurs 1-4 Rocket 3.4 04:36:56 10° N 04:40:25 26° NW 04:40:25 26° NW
Cosmos 1741 Rocket 3.9 04:41:56 61° SW 04:42:48 77° WNW 04:48:05 10° NNE
COSMOS 2406 4.5 04:39:12 10° NNW 04:44:42 42° NE 04:50:10 10° SE
Cosmos 468 Rocket 4.1 04:40:21 10° NNW 04:45:43 80° ENE 04:51:01 10° SSE
Cosmos 1544 Rocket 3.6 04:42:51 10° N 04:47:12 76° E 04:51:33 10° SSE
Cosmos 1975 Rocket 3.0 04:52:00 61° W 04:52:01 61° WNW 04:56:23 10° N
SL-8 R/B 3.6 04:52:45 59° WSW 04:53:39 88° SSE 04:58:29 10° ENE
USA 238 DEB 4.4 04:49:06 15° S 04:54:39 50° ESE 05:01:21 10° NE
Cosmos 1455 Rocket 3.0 04:50:19 10° N 04:54:40 81° E 04:59:00 10° S
USA 238 4.5 04:49:10 15° S 04:54:46 50° ESE 05:01:28 10° NE
BREEZE-M DEB (TANK) 3.1 04:55:08 29° WNW 04:57:55 87° NNE 05:00:45 10° ESE
Cosmos 1666 3.0 04:57:03 10° N 05:00:48 66° E 05:04:35 10° SSE
Cosmos 1844 Rocket 4.1 04:56:09 10° S 05:01:16 37° ESE 05:06:26 10° NE
Cosmos 1763 Rocket 3.9 04:56:08 10° NNW 05:01:25 64° ENE 05:06:42 10° SSE
Abrixas rocket 2.4 05:01:45 63° N 05:01:45 63° N 05:04:53 10° ENE
Cosmos 1850 Rocket 4.2 05:01:14 42° WSW 05:02:31 52° WNW 05:07:43 10° NNE
Lacrosse 4 Rocket 4.3 05:02:18 10° N 05:05:05 16° NE 05:07:50 10° E
Cosmos 2263 Rocket 2.5 05:08:41 35° WSW 05:10:37 48° WNW 05:16:09 10° NNE
Meteor 1-4 Rocket 2.3 05:09:11 10° NNW 05:12:41 83° W 05:16:09 10° S
Cosmos 1975 3.4 05:09:26 10° NNW 05:12:42 37° WNW 05:12:42 37° WNW
Meteor 1-31 Rocket 4.4 05:10:29 10° NNE 05:14:04 34° E 05:17:37 10° SSE
ARIANE 5 R/B 4.1 05:11:32 10° NNW 05:14:37 17° NW 05:14:37 17° NW
PSLV R/B 3.6 05:11:47 10° N 05:15:37 71° WNW 05:17:13 32° SSW
Cosmos 1743 2.6 05:12:29 10° NNW 05:16:22 62° W 05:20:13 10° S
Lacrosse 5 rocket 3.5 05:14:36 10° NW 05:17:20 18° N 05:19:59 10° ENE
Cosmos 1536 Rocket 3.6 05:13:04 10° S 05:17:23 79° E 05:21:47 10° NNE
Cosmos 304 Rocket 4.2 05:14:09 10° NNW 05:18:57 63° ENE 05:23:44 10° SSE
Okean 1 4.0 05:20:51 33° WNW 05:20:59 33° WNW 05:24:40 10° N
Meteor PRIRODA 4.5 05:19:21 10° NNE 05:22:58 51° E 05:26:35 10° S
CZ-2D R/B 4.0 05:20:58 10° NNW 05:23:17 13° NW 05:23:22 13° NW
PAYLOAD B 4.2 05:20:45 10° NNE 05:26:19 88° ESE 05:31:49 10° SSW
CZ-4C R/B 4.4 05:23:26 10° NW 05:27:26 18° N 05:31:48 10° NNE
Cosmos 1745 Rocket 4.4 05:21:07 10° N 05:27:30 71° E 05:33:48 10° SSE
ATLAS 3B R/B 2.8 05:21:56 14° SW 05:28:23 88° SE 05:35:31 10° NE
ATLAS 5 CENTAUR R/B 2.7 05:22:41 10° NW 05:28:33 69° NE 05:35:00 10° SE
ASTEX 1 4.3 05:29:32 10° NNW 05:33:45 29° WNW 05:35:32 23° WSW
Meteor 1-28 Rocket 4.3 05:31:36 10° SSE 05:35:11 46° ENE 05:38:50 10° N
Atlas Centaur 2 4.0 05:33:33 13° SW 05:35:43 15° SSW 05:38:53 10° SSE
Cosmos 1553 Rocket 4.0 05:29:35 10° S 05:35:43 84° E 05:41:49 10° N
Cosmos 1025 Rocket 4.2 05:36:21 10° SSE 05:40:26 46° E 05:44:33 10° NNE
SL-08 R/B 4.4 05:34:44 10° N 05:40:51 78° W 05:46:59 10° S
USA 116 3.4 05:38:13 10° SSE 05:41:21 70° ENE 05:44:27 10° N
CZ-3 R/B 3.9 05:33:13 13° WSW 05:46:44 27° SSW 05:52:48 10° SE
GEOS 3 Rocket 4.2 05:41:58 10° ESE 05:47:05 59° NE 05:52:19 10° NNW
Meteor 2-11 Rocket 4.4 05:41:53 10° SSW 05:47:51 60° WNW 05:53:53 10° N
Okean O Rocket 1.8 05:44:37 10° N 05:48:49 48° WNW 05:53:00 10° SW
ATLAS CENTAUR R/B 2.9 05:47:48 10° S 05:51:17 32° ESE 05:54:40 10° NE
CZ-4B R/B 3.1 05:46:06 10° N 05:51:21 66° WNW 05:56:37 10° SSW
Cosmos 1844 4.0 05:46:06 10° SSW 05:51:39 69° ESE 05:57:19 10° NNE
Cosmos 1814 Rocket 4.3 05:47:16 10° NW 05:52:07 42° WSW 05:56:58 10° S
CZ-4B R/B 3.6 05:48:35 10° N 05:52:14 32° WNW 05:55:05 14° SW
Meteor 1-13 Rocket 4.5 05:48:56 10° SSW 05:54:45 54° WNW 06:00:34 10° N
Cosmos 724 4.4 05:50:31 10° SSW 05:56:37 89° SE 06:02:39 10° NE
S3M 4.0 05:50:30 10° SSW 05:56:46 75° W 06:03:11 10° N
Cosmos 389 Rocket 2.5 05:56:35 10° N 06:00:04 82° E 06:03:33 10° SSE
ADEOS II 3.1 05:56:14 10° N 06:00:37 27° WNW 06:04:59 10° WSW
SL-27 R/B 4.2 05:58:26 10° N 06:01:51 37° ENE 06:05:10 10° SE
USA 215 3.6 05:55:39 10° ESE 06:02:08 71° NNE 06:08:39 10° NW
IRS-1C Rocket 4.2 05:57:19 10° N 06:02:31 58° WNW 06:07:41 10° SSW
Meteor 2-4 Rocket 3.8 05:59:11 10° SSW 06:04:42 59° WNW 06:10:27 10° N
Cosmos 1354 Rocket 4.5 06:01:07 10° S 06:06:24 67° ESE 06:11:42 10° NNE
Cosmos 1606 Rocket 4.0 06:03:39 10° N 06:07:59 65° E 06:12:18 10° SSE
COSMO-SKYMED 1 2.8 06:03:42 10° SSE 06:08:02 75° ENE 06:12:23 10° N
Cosmos 1271 Rocket 2.7 06:05:04 10° NNW 06:09:03 68° W 06:13:02 10° S
TELKOM 3 3.6 06:09:51 14° W 06:11:35 39° NNW 06:13:37 10° ENE
CZ-4B R/B 4.0 06:07:59 10° N 06:11:49 53° WNW 06:15:48 10° SSW
SJ-6F 4.5 06:11:46 10° N 06:15:53 60° WNW 06:19:55 10° SSW
Cosmos 2058 Rocket 4.3 06:12:35 10° N 06:16:57 49° ENE 06:21:19 10° SSE
Cosmos 1386 Rocket 4.5 06:11:16 10° NNW 06:17:24 64° W 06:23:24 10° S
CZ-2C R/B 4.3 06:14:04 10° SSW 06:18:27 38° W 06:22:55 10° NNW
NOSS 3-2 (A) 3.6 06:12:58 10° SW 06:19:00 86° SE 06:25:43 10° NE
Cosmos 841 Rocket 4.1 06:20:16 10° NW 06:24:54 33° WSW 06:29:31 10° SSW
TSX-5 3.7 06:22:22 10° NW 06:26:02 48° WSW 06:29:10 10° S
COSMOS 2406 3.9 06:23:45 10° NW 06:28:54 34° WSW 06:34:02 10° SSW
Cosmos 883 Rocket 4.5 06:24:26 10° SSW 06:30:33 76° W 06:36:46 10° N
Radarsat Rocket 4.4 06:24:48 10° NNE 06:30:46 76° ESE 06:37:18 10° SSW
Thor Agena Rocket 4.0 06:25:48 10° SSE 06:31:03 71° ENE 06:36:21 10° N
Cosmos 1709 Rocket 4.0 06:25:31 10° N 06:31:51 80° W 06:38:04 10° S
Cosmos 2278 Rocket 2.5 06:26:37 10° SSW 06:32:14 74° ESE 06:37:56 10° NNE
